[[{"header":{"parameterUnit":"m.s-1","parameterCategory":2,"la1":30.2992,"la2":30.254,"lo1":-89.0895,"lo2":-89.0443,"dy":0.0025,"dx":0.0025,"nx":19,"ny":19,"refTime":"2026-04-11T09:00:00:Z","depth":"0","parameterNumber":2,"parameterNumberName":"U-component_of_CURRENTS"},"data":[0,0,0,0.3459,0.3463,0.3659,0.366,0.3884,0.3886,0,0,0,0,0,0,0,0,0,0,0,0.3387,0.3388,0.3459,0.3463,0.3659,0.366,0.3884,0.3886,0,0,0,0,0,0,0,0,0,0,0,0.3387,0.3388,0.3389,0.3464,0.3659,0.366,0.3883,0.3746,0,0,0,0,0,0,0,0,0,0,0.3561,0.3484,0.3388,0.3389,0.3465,0.3658,0.366,0.374,0.3755,0.3783,0,0.3804,0,0.3845,0.3899,0.3899,0,0,0,0.348,0.3472,0.3531,0.3389,0.3467,0.3658,0.3575,0.3749,0.3765,0.3802,0.3807,0.3816,0.3849,0.39,0.3901,0.4126,0.4127,0,0,0.3469,0.3422,0.3519,0.354,0.3505,0.3569,0.3581,0.3759,0.3767,0.3808,0.3822,0.3853,0.3901,0.3903,0.4125,0.4127,0,0,0,0.3427,0.3414,0.347,0.3531,0.3566,0.3574,0.3588,0.3759,0.3779,0.3825,0.3855,0.3902,0.3905,0.4124,0.4126,0.4144,0,0,0,0.3421,0.3389,0.3464,0.3439,0.3562,0.3667,0.3584,0.3767,0.3788,0.3854,0.3903,0.3907,0.4123,0.4125,0.4141,0.4115,0,0,0,0.338,0.3385,0.3405,0.3436,0.3515,0.3665,0.3696,0.3773,0.3806,0.39,0.3907,0.4122,0.4125,0.4138,0.4112,0.4149,0,0,0,0.3331,0.3369,0.3404,0.3466,0.3513,0.3676,0.3696,0.3824,0.3907,0.3903,0.4123,0.4126,0.4137,0.4111,0.4147,0.4125,0.4133,0,0,0.3355,0.337,0.3413,0.345,0.3589,0.3651,0.3812,0.3919,0.3952,0.4063,0.4069,0.4142,0.4112,0.4148,0.4266,0.4268,0,0,0,0.3407,0.3431,0.3484,0.3567,0.3688,0.3806,0.3926,0.398,0.4094,0.401,0.4186,0.4167,0.4189,0.4174,0.4178,0.3976,0.4137,0.4137,0.4136,0.3356,0.3442,0.3522,0.3646,0.3756,0.3934,0.4028,0.4123,0.4162,0.4215,0.4217,0.4298,0.4286,0.4287,0.4082,0.4274,0.4275,0.4275,0.4275,0.3372,0.3408,0.353,0.3632,0.3778,0.3916,0.412,0.4175,0.4296,0.4291,0.4313,0.4236,0.4291,0.4071,0.4277,0.4276,0.4276,0.4276,0.4276,0.3308,0.3337,0.3406,0.3552,0.369,0.3884,0.404,0.4171,0.4281,0.4322,0.432,0.4319,0.4092,0.4344,0.4344,0.4344,0.4344,0.4344,0.4344,0.3194,0.3277,0.332,0.3474,0.3552,0.3717,0.3981,0.4113,0.4269,0.4326,0.4326,0.4103,0.4319,0.4278,0.4346,0.4345,0.4345,0.4345,0.4345,0.3105,0.3141,0.3203,0.3265,0.3448,0.3512,0.3807,0.4047,0.4207,0.4256,0.4098,0.4345,0.433,0.4328,0.429,0.4355,0.4355,0.4355,0.4355,0.3004,0.3044,0.3076,0.3143,0.3272,0.3411,0.3503,0.3743,0.3926,0.3942,0.3987,0.3936,0.3945,0.3904,0.3911,0.3862,0.3818,0.3817,0.3816,0.2924,0.2959,0.2929,0.3028,0.3157,0.3267,0.3225,0.3268,0.3584,0.3772,0.3708,0.3731,0.3633,0.3663,0.3583,0.3609,0.3526,0,0]},{"header":{"parameterUnit":"m.s-1","parameterCategory":2,"la1":30.2992,"la2":30.254,"lo1":-89.0895,"lo2":-89.0443,"dy":0.0025,"dx":0.0025,"nx":19,"ny":19,"refTime":"2026-04-11T09:00:00:Z","depth":"0","parameterNumber":3,"parameterNumberName":"V-component_of_CURRENTS"},"data":[0,0,0,-0.037,-0.0373,-0.0563,-0.0564,-0.0858,-0.086,0,0,0,0,0,0,0,0,0,0,0,-0.0303,-0.0304,-0.037,-0.0374,-0.0563,-0.0564,-0.0858,-0.0861,0,0,0,0,0,0,0,0,0,0,0,-0.0303,-0.0303,-0.0304,-0.0374,-0.0563,-0.0564,-0.0857,-0.0709,0,0,0,0,0,0,0,0,0,0,-0.0522,-0.0423,-0.0303,-0.0304,-0.0375,-0.0562,-0.0564,-0.0702,-0.0718,-0.0777,0,-0.0784,0,-0.0818,-0.0878,-0.0879,0,0,0,-0.0406,-0.0409,-0.0472,-0.0304,-0.0376,-0.0562,-0.0487,-0.0711,-0.073,-0.0799,-0.0789,-0.0799,-0.0823,-0.088,-0.0881,-0.1064,-0.1064,0,0,-0.0396,-0.0337,-0.0458,-0.0483,-0.0399,-0.048,-0.0492,-0.0722,-0.0724,-0.079,-0.0806,-0.0827,-0.0882,-0.0884,-0.1064,-0.1064,0,0,0,-0.0344,-0.0329,-0.0387,-0.0471,-0.0495,-0.0485,-0.0499,-0.0714,-0.0736,-0.081,-0.0831,-0.0883,-0.0887,-0.1064,-0.1064,-0.0924,0,0,0,-0.0339,-0.0298,-0.0381,-0.0349,-0.0489,-0.0595,-0.0485,-0.072,-0.0747,-0.0829,-0.0883,-0.0889,-0.1064,-0.1064,-0.0927,-0.0822,0,0,0,-0.0299,-0.0293,-0.0309,-0.0345,-0.0414,-0.0592,-0.0628,-0.0727,-0.0759,-0.088,-0.089,-0.1064,-0.1064,-0.0931,-0.083,-0.0732,0,0,0,-0.0244,-0.0235,-0.0307,-0.0303,-0.0412,-0.0514,-0.0627,-0.0721,-0.0812,-0.0885,-0.1064,-0.1064,-0.0932,-0.0835,-0.0738,-0.0471,-0.0423,0,0,-0.0201,-0.0228,-0.0227,-0.0296,-0.0346,-0.0491,-0.0574,-0.0738,-0.0836,-0.0998,-0.1003,-0.0926,-0.0831,-0.0733,-0.0471,-0.0422,0,0,0,-0.0193,-0.0189,-0.0218,-0.0262,-0.0366,-0.0465,-0.0645,-0.0711,-0.0838,-0.0886,-0.0966,-0.091,-0.0852,-0.0705,-0.0668,-0.0711,-0.1064,-0.1064,-0.1064,-0.0066,-0.0127,-0.0127,-0.0223,-0.0297,-0.0471,-0.0538,-0.067,-0.0804,-0.0821,-0.0827,-0.0694,-0.0539,-0.0507,-0.0558,-0.0887,-0.0887,-0.0886,-0.0886,0.0016,0.0025,-0.0057,-0.008,-0.0202,-0.0286,-0.046,-0.0541,-0.061,-0.0732,-0.0684,-0.0603,-0.0456,-0.0526,-0.0878,-0.0879,-0.088,-0.0881,-0.0881,0.0113,0.0109,0.0087,0.0052,0.0003,-0.0154,-0.0134,-0.0306,-0.0433,-0.0413,-0.0277,-0.0277,-0.0306,-0.0403,-0.0402,-0.0401,-0.04,-0.04,-0.0399,0.0223,0.0195,0.0234,0.0187,0.0198,0.0175,0.0063,0.0064,0.0023,-0.007,-0.0069,-0.0248,-0.0546,-0.0529,-0.0385,-0.0388,-0.039,-0.0391,-0.0392,0.0335,0.0327,0.0393,0.0422,0.0455,0.0567,0.0472,0.0569,0.0519,0.0571,0.0285,0.0107,0.0101,0.0071,0.0101,0.0399,0.0399,0.0399,0.0399,0.0429,0.0423,0.0535,0.0615,0.0706,0.0736,0.1053,0.1113,0.0909,0.0803,0.0578,0.0503,0.0473,0.0478,0.0439,0.047,0.0855,0.0855,0.0855,0.0508,0.0532,0.0642,0.0703,0.0811,0.0983,0.134,0.1595,0.1257,0.0852,0.0465,0.0446,0.0297,0.0253,0.0217,0.0166,0.0199,0,0]}],[{"header":{"parameterUnit":"m.s-1","parameterCategory":2,"la1":30.2992,"la2":30.254,"lo1":-89.0895,"lo2":-89.0443,"dy":0.0025,"dx":0.0025,"nx":19,"ny":19,"refTime":"2026-04-11T09:00:00:Z","depth":"2","parameterNumber":2,"parameterNumberName":"U-component_of_CURRENTS"},"data":[0,0,0,0.266,0.2662,0.2753,0.2753,0.286,0.2861,0,0,0,0,0,0,0,0,0,0,0,0.2615,0.2615,0.266,0.2662,0.2753,0.2753,0.286,0.2861,0,0,0,0,0,0,0,0,0,0,0,0.2615,0.2615,0.2615,0.2662,0.2753,0.2753,0.286,0.2797,0,0,0,0,0,0,0,0,0,0,0.2711,0.2648,0.2615,0.2615,0.2663,0.2752,0.2753,0.2794,0.2801,0.2812,0,0.2808,0,0.2837,0.2867,0.2867,0,0,0,0.2676,0.2642,0.2684,0.2615,0.2663,0.2752,0.2716,0.2798,0.2806,0.2821,0.2809,0.2814,0.2839,0.2867,0.2868,0.2973,0.2974,0,0,0.267,0.2621,0.2679,0.2688,0.2662,0.2713,0.2718,0.2803,0.2789,0.281,0.2817,0.284,0.2868,0.2869,0.2973,0.2973,0,0,0,0.2647,0.2617,0.2658,0.2683,0.27,0.2715,0.2721,0.2785,0.2803,0.2818,0.2842,0.2868,0.287,0.2972,0.2973,0.3026,0,0,0,0.2645,0.2603,0.2655,0.2625,0.2698,0.2741,0.2701,0.2797,0.2808,0.2841,0.2869,0.287,0.2972,0.2973,0.3023,0.3007,0,0,0,0.2616,0.26,0.2607,0.2622,0.266,0.274,0.2763,0.28,0.2822,0.2867,0.2871,0.2971,0.2973,0.3021,0.3004,0.312,0,0,0,0.2569,0.2599,0.2605,0.2635,0.2659,0.2723,0.2763,0.2823,0.2862,0.2869,0.2972,0.2973,0.302,0.3002,0.3117,0.2934,0.2934,0,0,0.2599,0.26,0.2623,0.2633,0.2673,0.2713,0.2795,0.2871,0.2886,0.2944,0.2947,0.3024,0.3004,0.3119,0.3005,0.3003,0,0,0,0.263,0.2631,0.2643,0.266,0.2705,0.2771,0.2847,0.2894,0.2986,0.2912,0.3034,0.3019,0.3091,0.2974,0.2973,0.2979,0.2979,0.2979,0.2978,0.2586,0.2625,0.2652,0.2706,0.2728,0.2826,0.2896,0.2976,0.3004,0.3065,0.3072,0.3198,0.3072,0.307,0.3102,0.3103,0.3103,0.3103,0.3103,0.2601,0.2614,0.2646,0.2692,0.2755,0.2828,0.2972,0.3041,0.3169,0.314,0.3211,0.3043,0.3071,0.3108,0.3107,0.3106,0.3106,0.3105,0.3105,0.2541,0.2563,0.2601,0.2655,0.2743,0.2866,0.2973,0.3105,0.3204,0.3249,0.3193,0.3189,0.324,0.3334,0.3335,0.3335,0.3336,0.3336,0.3336,0.2466,0.2514,0.2533,0.2623,0.2674,0.2794,0.3005,0.3085,0.3193,0.3212,0.3212,0.3277,0.3269,0.3255,0.3343,0.3342,0.3341,0.3341,0.334,0.2392,0.2409,0.2438,0.2473,0.2579,0.2598,0.2835,0.2947,0.3091,0.309,0.3212,0.3212,0.3185,0.3181,0.3165,0.3226,0.3226,0.3226,0.3226,0.2319,0.2338,0.2334,0.235,0.2395,0.2487,0.2439,0.255,0.2788,0.2877,0.2892,0.2763,0.2775,0.2719,0.2726,0.2698,0.2638,0.2637,0.2636,0.2261,0.2279,0.2234,0.2253,0.2294,0.2286,0.2175,0.212,0.2325,0.2613,0.2794,0.3186,0.3031,0.3037,0.2976,0.2978,0.2943,0,0]},{"header":{"parameterUnit":"m.s-1","parameterCategory":2,"la1":30.2992,"la2":30.254,"lo1":-89.0895,"lo2":-89.0443,"dy":0.0025,"dx":0.0025,"nx":19,"ny":19,"refTime":"2026-04-11T09:00:00:Z","depth":"2","parameterNumber":3,"parameterNumberName":"V-component_of_CURRENTS"},"data":[0,0,0,0.018,0.018,0.0148,0.0147,0.0113,0.0113,0,0,0,0,0,0,0,0,0,0,0,0.0182,0.0182,0.018,0.018,0.0148,0.0147,0.0113,0.0113,0,0,0,0,0,0,0,0,0,0,0,0.0182,0.0182,0.0182,0.018,0.0148,0.0147,0.0113,0.0131,0,0,0,0,0,0,0,0,0,0,0.0159,0.0182,0.0182,0.0182,0.0179,0.0148,0.0147,0.0132,0.013,0.0135,0,0.0137,0,0.0137,0.0113,0.0113,0,0,0,0.0161,0.0184,0.0166,0.0182,0.0179,0.0148,0.0157,0.013,0.0129,0.0133,0.0136,0.0135,0.0136,0.0113,0.0113,0.0178,0.0179,0,0,0.0162,0.0183,0.0167,0.0165,0.018,0.0158,0.0156,0.0129,0.0137,0.0136,0.0135,0.0136,0.0113,0.0112,0.0178,0.0179,0,0,0,0.018,0.0185,0.0167,0.0166,0.0167,0.0157,0.0155,0.0138,0.013,0.0134,0.0135,0.0112,0.0112,0.0177,0.0178,0.029,0,0,0,0.018,0.0196,0.0168,0.0181,0.0168,0.0156,0.0165,0.0131,0.0128,0.0136,0.0112,0.0112,0.0176,0.0177,0.0285,0.0358,0,0,0,0.0182,0.0197,0.0193,0.0182,0.0177,0.0156,0.0146,0.013,0.013,0.0113,0.0112,0.0175,0.0177,0.0281,0.0349,0.0372,0,0,0,0.0203,0.0226,0.0194,0.0234,0.0177,0.0217,0.0146,0.0164,0.0159,0.0112,0.0176,0.0178,0.0279,0.0344,0.0367,0.0421,0.0446,0,0,0.0246,0.0232,0.0258,0.0229,0.0286,0.0219,0.0293,0.0244,0.0186,0.018,0.0181,0.0287,0.0349,0.0371,0.0527,0.0549,0,0,0,0.0282,0.0302,0.0315,0.034,0.0346,0.0373,0.0328,0.0306,0.0285,0.0194,0.0292,0.0329,0.0338,0.0362,0.038,0.0187,0.0186,0.0186,0.0186,0.0364,0.037,0.0429,0.0443,0.0476,0.0483,0.0495,0.0457,0.0385,0.0389,0.0423,0.0526,0.0555,0.0568,0.0413,0.0413,0.0414,0.0414,0.0414,0.0457,0.0499,0.0522,0.0574,0.06,0.0659,0.066,0.0615,0.061,0.0532,0.0534,0.0485,0.0594,0.0423,0.0422,0.0421,0.042,0.0419,0.0418,0.0524,0.0545,0.0567,0.065,0.0743,0.0774,0.088,0.083,0.0726,0.0748,0.0713,0.0711,0.0583,0.0725,0.0725,0.0726,0.0726,0.0727,0.0727,0.0576,0.0604,0.0667,0.0746,0.082,0.0934,0.0998,0.101,0.0948,0.086,0.0859,0.063,0.062,0.06,0.0734,0.0733,0.0732,0.0731,0.0731,0.066,0.0663,0.0763,0.083,0.1004,0.1164,0.1203,0.123,0.1181,0.1152,0.0901,0.0895,0.0858,0.0843,0.0827,0.1012,0.1012,0.1012,0.1012,0.071,0.0721,0.0859,0.0989,0.1154,0.1281,0.143,0.1386,0.1226,0.1085,0.1082,0.1029,0.1017,0.0983,0.0964,0.0948,0.1164,0.1164,0.1164,0.0768,0.0802,0.0911,0.1031,0.1227,0.1406,0.1528,0.1448,0.1203,0.1166,0.1065,0.103,0.0939,0.0925,0.0855,0.0833,0.08,0,0]}],[{"header":{"parameterUnit":"m.s-1","parameterCategory":2,"la1":30.2992,"la2":30.254,"lo1":-89.0895,"lo2":-89.0443,"dy":0.0025,"dx":0.0025,"nx":19,"ny":19,"refTime":"2026-04-11T09:00:00:Z","depth":"4","parameterNumber":2,"parameterNumberName":"U-component_of_CURRENTS"},"data":[0,0,0,0.1536,0.1538,0.1644,0.1644,0.1708,0.1708,0,0,0,0,0,0,0,0,0,0,0,0.1509,0.151,0.1536,0.1538,0.1644,0.1644,0.1707,0.1708,0,0,0,0,0,0,0,0,0,0,0,0.1508,0.1509,0.1511,0.1539,0.1643,0.1644,0.1707,0.1645,0,0,0,0,0,0,0,0,0,0,0.1552,0.1553,0.1509,0.1511,0.1539,0.1643,0.1644,0.1643,0.1649,0.164,0,0.167,0,0.1686,0.1711,0.1711,0,0,0,0.1537,0.1548,0.156,0.1511,0.154,0.1643,0.1596,0.1647,0.1654,0.1647,0.1671,0.1674,0.1687,0.1711,0.1711,0.1812,0.1813,0,0,0.1531,0.1539,0.1556,0.1565,0.1584,0.1592,0.1599,0.1652,0.1674,0.1671,0.1675,0.1688,0.1711,0.1711,0.1812,0.1813,0,0,0,0.1516,0.1536,0.1548,0.1562,0.1584,0.1596,0.1603,0.1672,0.1673,0.1676,0.1689,0.1711,0.1712,0.1811,0.1812,0.1857,0,0,0,0.1512,0.1526,0.1546,0.1553,0.1584,0.1643,0.1622,0.1669,0.1676,0.1688,0.1711,0.1712,0.181,0.1811,0.1854,0.1872,0,0,0,0.1501,0.1525,0.1538,0.1553,0.1596,0.1643,0.1648,0.1671,0.1682,0.1711,0.1712,0.1809,0.1811,0.1851,0.1867,0.1928,0,0,0,0.1501,0.1518,0.154,0.1568,0.1595,0.1628,0.1648,0.1695,0.1722,0.1712,0.181,0.1812,0.185,0.1865,0.1924,0.1671,0,0,0,0.1507,0.152,0.1531,0.1552,0.1583,0.1612,0.1666,0.1721,0.1749,0.1785,0.1788,0.1855,0.1867,0.1927,0.1787,0,0,0,0,0.1522,0.1531,0.1546,0.158,0.1608,0.1667,0.171,0.1752,0.1843,0.1776,0.1881,0.1888,0.1924,0.1769,0.1821,0.1821,0.1821,0.1821,0.182,0.1525,0.1537,0.1561,0.159,0.1629,0.1708,0.177,0.1842,0.1854,0.1927,0.1944,0.2047,0.1885,0.1967,0.1968,0.1968,0.1968,0.1968,0.1968,0.1515,0.1515,0.1569,0.1599,0.1669,0.1731,0.1847,0.1903,0.2027,0.2017,0.205,0.185,0.1974,0.1973,0.1972,0.1971,0.1971,0.197,0.197,0.149,0.1488,0.1533,0.1593,0.168,0.1776,0.187,0.1982,0.2078,0.2127,0.1989,0.2092,0.2067,0.2165,0.2165,0.2165,0.2166,0.2166,0.2166,0.1437,0.1472,0.1507,0.1587,0.1639,0.1748,0.191,0.1975,0.209,0.2023,0.2163,0.2113,0.2107,0.208,0.2172,0.2171,0.217,0.217,0.2169,0.137,0.1412,0.144,0.1488,0.1586,0.1636,0.1821,0.1886,0.1952,0.1951,0.1964,0.1973,0.1937,0.1936,0.19,0.1943,0.194,0.1937,0,0.1323,0.1346,0.1365,0.1393,0.1427,0.1544,0.1562,0.1663,0.1775,0.1723,0.1957,0.1969,0.1974,0.1929,0.1923,0.1877,0,0,0,0.128,0.1292,0.1275,0.131,0.1324,0.1402,0.1549,0.1531,0.177,0.1743,0.1864,0.1883,0.2024,0.2189,0.2155,0.2148,0.2102,0,0]},{"header":{"parameterUnit":"m.s-1","parameterCategory":2,"la1":30.2992,"la2":30.254,"lo1":-89.0895,"lo2":-89.0443,"dy":0.0025,"dx":0.0025,"nx":19,"ny":19,"refTime":"2026-04-11T09:00:00:Z","depth":"4","parameterNumber":3,"parameterNumberName":"V-component_of_CURRENTS"},"data":[0,0,0,0.0267,0.0268,0.0286,0.0287,0.0295,0.0295,0,0,0,0,0,0,0,0,0,0,0,0.0256,0.0256,0.0267,0.0268,0.0286,0.0287,0.0295,0.0295,0,0,0,0,0,0,0,0,0,0,0,0.0256,0.0256,0.0256,0.0268,0.0286,0.0287,0.0295,0.0284,0,0,0,0,0,0,0,0,0,0,0.0267,0.0269,0.0256,0.0256,0.0268,0.0286,0.0287,0.0284,0.0285,0.0283,0,0.0285,0,0.0294,0.0296,0.0296,0,0,0,0.0265,0.0268,0.0266,0.0256,0.0268,0.0286,0.0277,0.0284,0.0286,0.0285,0.0285,0.0286,0.0294,0.0296,0.0296,0.0337,0.0337,0,0,0.0264,0.0267,0.0265,0.0266,0.0272,0.0277,0.0278,0.0285,0.029,0.0285,0.0286,0.0294,0.0296,0.0296,0.0337,0.0337,0,0,0,0.0263,0.0266,0.0264,0.0266,0.0272,0.0277,0.0279,0.029,0.0287,0.0286,0.0294,0.0296,0.0296,0.0336,0.0337,0.0417,0,0,0,0.0262,0.0265,0.0263,0.0266,0.0272,0.0286,0.0283,0.0286,0.0287,0.0294,0.0296,0.0296,0.0336,0.0336,0.0414,0.0462,0,0,0,0.0255,0.0265,0.0265,0.0266,0.0275,0.0286,0.0284,0.0287,0.0292,0.0296,0.0296,0.0335,0.0336,0.0411,0.0457,0.047,0,0,0,0.026,0.0282,0.0265,0.0298,0.0275,0.0319,0.0284,0.0315,0.0324,0.0296,0.0336,0.0337,0.041,0.0454,0.0468,0.0448,0,0,0,0.0294,0.0286,0.0308,0.0294,0.0344,0.0316,0.0377,0.0368,0.0335,0.033,0.0331,0.0415,0.0457,0.047,0.0503,0,0,0,0,0.0324,0.0341,0.0353,0.0377,0.0392,0.0423,0.0413,0.0405,0.0405,0.0344,0.0411,0.0435,0.0441,0.0421,0.0341,0.0341,0.0341,0.0341,0.0341,0.0373,0.0385,0.0435,0.0456,0.0484,0.0501,0.0518,0.0503,0.0463,0.0472,0.0498,0.0561,0.0544,0.0485,0.0486,0.0486,0.0486,0.0487,0.0487,0.044,0.0474,0.05,0.0551,0.0576,0.0626,0.0632,0.061,0.0612,0.0567,0.0568,0.0504,0.0495,0.0493,0.0492,0.0491,0.049,0.049,0.0489,0.0475,0.0495,0.0528,0.0606,0.0683,0.0715,0.0781,0.076,0.0696,0.0708,0.0652,0.061,0.0605,0.0696,0.0697,0.0697,0.0697,0.0697,0.0698,0.0492,0.0529,0.0591,0.0673,0.074,0.0829,0.0873,0.0867,0.0811,0.0751,0.0729,0.0631,0.0625,0.0616,0.0702,0.0701,0.0701,0.07,0.07,0.0533,0.0547,0.064,0.0706,0.0856,0.092,0.0967,0.0925,0.0905,0.0842,0.0753,0.0749,0.0714,0.0705,0.0698,0.0811,0.0811,0.0811,0,0.055,0.0566,0.0684,0.0794,0.091,0.0976,0.0983,0.0966,0.087,0.0852,0.0879,0.0781,0.0776,0.0737,0.0729,0.0722,0,0,0,0.0576,0.0611,0.0692,0.0802,0.0933,0.0965,0.0986,0.0951,0.0894,0.0859,0.0813,0.0813,0.0778,0.0716,0.0652,0.0644,0.0627,0,0]}]]